Location: Martley
(52.2333°N, 2.3667°W)
Time: 22:31:54
(UTC+00:00)

Cosmos 1500 - Pass Details

Date: 11 December 2019
Orbit: 499 x 520 km, 82.5° (Epoch: 24 January)

Event Time Altitude Azimuth Distance (km) Brightness Sun altitude
Rises 06:05:02 0° 175° (S) 2,633 7.1 -17.6°
Reaches altitude 10° 06:07:12 10° 170° (S) 1,748 6.2 -17.3°
Maximum altitude 06:10:55 49° 95° (E) 675 4.2 -16.7°
Drops below altitude 10° 06:14:38 10° 20° (NNE) 1,753 5.9 -16.2°
Sets 06:16:48 0° 15° (NNE) 2,641 6.8 -15.9°
